Theta_e
291 291 291 290 289 288 289 289 290 291 291 292 292 293 290 289 287 285 286 285 286 290 291 288 291 291 291 289 289 289 289 289 288 288 288 288 288 288 290 291 292 292 293 293 293 294 295 295 296 296 296 296 296 297 297 297 297 298 298 299 301 301 301 301 302 302 302 302 302 303 303 303 303 304
289 288 288 289 288 288 289 288 287 288 289 289 290 289 290 290 287 287 285 284 287 287 290 290 288 289 288 288 288 288 288 288 288 288 288 288 287 288 289 289 290 290 292 292 292 294 295 295 295 295 295 295 296 297 297 297 297 298 299 300 300 300 300 301 301 300 300 301 302 302 302 303 303 303
288 288 287 288 288 288 288 288 288 288 288 287 288 289 289 288 288 286 286 283 286 287 285 287 288 287 287 287 287 287 287 287 287 287 287 287 287 287 287 287 288 289 290 292 292 294 295 295 295 294 294 295 295 296 296 296 296 297 298 298 299 299 299 299 298 299 299 300 301 301 302 302 302 303
287 287 287 287 287 287 287 287 287 287 287 287 287 287 287 287 287 286 285 283 283 287 285 286 287 287 285 286 285 286 286 287 286 287 286 286 286 286 286 286 287 288 289 291 291 293 294 294 294 294 294 294 295 295 295 296 296 296 296 297 298 298 297 297 298 298 298 299 299 300 300 300 301 302
287 287 286 286 286 286 286 286 286 286 286 286 286 286 286 285 285 285 283 282 282 285 286 285 285 285 285 284 286 284 285 285 286 286 286 286 285 285 285 285 286 287 288 289 290 291 292 292 292 292 292 292 293 294 295 295 295 295 295 295 296 297 297 298 298 298 298 297 298 298 298 299 300 301
286 286 285 285 285 286 285 285 285 285 285 285 284 285 284 284 284 285 283 282 281 281 284 283 285 284 285 283 285 284 283 284 285 284 285 285 285 285 285 285 285 286 287 289 290 291 291 291 291 291 291 292 293 295 295 293 293 294 294 294 294 295 295 296 297 296 296 296 298 298 300 298 296 297
285 285 284 284 285 285 284 284 284 284 284 284 284 283 284 283 283 284 283 282 281 281 281 283 282 283 283 283 283 284 284 284 284 283 283 284 284 285 285 285 285 286 287 289 289 290 290 290 290 291 291 291 291 291 292 292 292 292 293 293 294 293 293 294 295 295 295 296 297 298 298 298 300 300
284 284 283 283 284 284 283 282 283 283 284 283 283 283 283 283 282 283 283 283 281 280 280 282 282 282 282 282 284 284 284 284 283 283 283 284 284 284 284 284 284 285 288 288 288 288 289 289 289 289 290 290 290 291 291 291 291 291 292 292 292 292 293 293 293 293 294 295 297 298 297 298 296 297
284 283 283 283 283 283 282 282 282 282 282 282 282 282 282 282 282 282 282 282 282 280 279 280 282 282 282 283 283 284 282 282 282 283 282 283 283 283 284 284 284 285 286 286 286 286 287 287 288 289 289 289 290 290 290 290 290 290 291 291 291 292 292 292 292 292 293 294 295 295 296 297 297 298
283 283 282 282 282 282 282 281 281 282 281 282 281 281 281 281 281 281 281 282 281 280 280 280 280 282 281 281 282 283 282 281 280 281 282 282 282 282 282 282 284 284 284 284 283 284 285 286 286 287 288 289 289 289 290 290 290 289 289 290 290 291 291 292 291 292 292 293 293 294 295 296 295 296
283 282 282 282 282 282 282 282 281 281 281 281 281 281 281 281 281 281 281 281 280 280 279 280 280 280 281 281 280 282 282 282 281 279 279 279 281 281 281 281 282 284 283 284 285 284 284 285 284 286 287 288 288 289 289 289 289 288 289 290 291 291 290 291 291 291 292 292 292 293 293 293 295 295
282 282 282 282 282 282 282 282 282 282 281 281 280 281 281 281 281 280 280 280 280 279 279 279 279 280 279 280 281 282 281 279 279 280 279 277 278 279 280 281 280 281 281 281 281 282 283 283 284 285 286 286 287 287 287 287 287 287 289 290 290 291 290 292 292 291 292 292 292 293 293 293 293 295
281 281 281 282 282 282 282 282 282 282 282 281 280 281 281 281 281 280 280 280 279 279 279 278 279 279 279 279 279 278 278 277 277 279 279 278 279 279 279 280 281 281 280 280 280 280 282 281 282 283 283 284 285 285 286 287 287 288 290 290 290 291 291 291 291 291 291 292 292 291 292 292 293 293
280 280 281 281 281 281 281 281 281 282 282 282 282 282 282 282 281 280 279 279 279 278 278 278 278 277 277 278 278 277 278 279 279 278 278 277 278 279 278 278 279 281 280 278 277 279 282 281 281 282 282 284 285 285 285 286 287 288 290 290 290 290 290 291 291 291 291 292 292 292 292 291 292 293
279 280 280 280 280 280 279 280 281 281 282 282 282 283 283 283 281 280 279 279 279 278 277 278 277 277 276 277 278 278 278 279 278 278 278 278 277 276 274 273 276 281 279 277 277 278 281 281 280 281 282 283 284 285 285 288 288 288 289 289 290 290 290 291 291 292 292 292 291 291 291 292 292 292
279 279 279 279 279 279 279 279 279 279 280 281 282 283 282 282 281 282 280 279 278 278 277 276 277 276 276 277 277 278 278 278 278 278 278 277 275 274 274 274 274 277 279 277 276 277 280 281 280 280 282 283 284 285 286 287 288 288 289 289 289 289 290 292 293 292 291 291 291 291 291 291 291 291
279 279 278 278 278 278 279 279 279 279 280 281 282 282 281 280 280 281 281 281 280 279 277 276 276 277 277 276 277 279 278 279 277 276 276 276 276 275 274 274 275 276 279 278 276 275 278 280 280 280 282 283 284 283 284 286 288 288 288 288 289 290 291 291 291 291 291 290 291 290 290 290 290 290
278 278 278 278 278 278 278 278 279 280 281 281 281 280 280 279 279 280 280 279 279 279 278 277 276 278 279 277 279 280 280 277 275 275 275 276 275 274 274 275 276 278 280 277 276 275 277 280 279 279 281 282 281 282 284 286 287 287 288 288 289 289 290 290 290 290 290 289 289 290 289 290 289 289
278 278 278 278 277 278 278 279 281 282 282 281 279 278 278 278 279 278 278 278 278 279 279 279 279 279 280 280 279 279 278 278 277 277 276 276 275 275 277 277 278 278 280 279 277 273 277 280 279 279 280 280 280 281 283 285 286 286 287 288 288 289 290 290 289 289 289 289 289 289 288 289 289 288
278 278 278 277 277 277 278 279 282 283 282 280 278 277 277 277 277 277 278 279 280 280 280 280 280 279 279 280 279 279 278 278 278 278 277 276 276 274 273 273 275 275 278 279 277 275 276 279 277 277 279 279 278 280 281 284 285 285 286 286 287 288 289 289 288 288 288 288 288 288 288 287 287 287
278 278 278 278 277 278 278 280 283 283 281 278 277 277 276 275 274 275 278 279 280 279 279 278 278 279 279 279 279 279 279 279 278 276 274 273 274 272 271 272 273 274 277 278 279 277 275 276 276 275 277 277 277 278 280 281 283 284 284 285 286 287 288 289 288 288 288 288 287 287 287 286 286 285
278 278 278 278 278 278 279 281 282 282 280 278 277 276 274 273 274 276 278 277 276 276 275 275 275 276 276 277 277 278 278 278 278 274 272 273 273 272 272 271 272 274 276 278 280 275 274 275 275 274 275 276 277 278 279 280 280 281 281 282 283 285 286 287 288 288 287 287 287 286 286 285 284 282
277 277 278 278 279 279 281 282 281 281 280 278 277 275 274 273 274 276 276 274 272 271 270 270 271 272 273 274 274 275 276 277 277 276 274 274 273 272 272 272 272 271 274 277 279 272 272 272 273 273 271 271 274 278 277 278 278 278 277 277 277 282 283 283 284 287 287 286 286 285 285 284 282 279
276 276 277 278 280 281 281 281 280 280 280 278 276 275 274 274 273 276 273 271 270 269 269 269 270 271 272 272 273 273 274 275 275 275 275 275 274 273 273 273 273 271 273 276 278 272 272 272 271 273 272 269 269 273 275 277 277 277 276 275 275 278 280 280 280 281 283 286 286 285 285 284 281 277
275 276 276 277 279 280 280 279 279 279 279 278 276 276 275 275 276 275 270 268 269 268 268 268 269 270 271 271 272 272 273 273 274 274 275 275 275 274 273 273 272 272 273 276 278 272 269 270 270 271 270 271 271 271 273 276 276 276 275 274 273 274 275 276 276 276 278 280 283 285 285 284 283 278
275 275 276 277 279 280 279 278 278 278 278 277 275 276 276 276 275 271 268 267 268 267 268 269 269 269 269 269 270 271 271 272 273 273 274 275 276 276 276 274 272 270 271 275 277 272 270 269 270 269 269 269 269 271 271 274 275 274 275 273 273 273 273 273 273 273 273 274 275 279 280 284 284 283
275 276 276 277 279 278 277 278 278 277 276 275 276 276 275 274 273 269 267 267 266 267 267 268 267 268 268 268 269 269 270 271 272 273 274 275 276 276 276 276 275 273 274 275 274 272 271 270 271 269 268 269 269 271 272 270 271 273 273 272 272 272 272 272 272 271 272 272 273 277 277 278 280 282
276 276 277 278 278 277 277 277 276 276 275 275 275 274 274 272 269 267 266 265 266 266 266 266 266 267 267 268 268 269 270 271 271 272 273 274 276 275 274 274 274 274 274 273 272 272 272 270 270 270 269 269 269 269 269 271 271 270 270 272 272 271 271 271 271 271 271 272 271 272 272 272 273 273
276 278 278 278 277 276 276 275 274 272 273 273 273 272 271 268 265 265 265 265 265 265 265 265 266 266 267 268 269 269 270 271 272 273 274 275 275 274 273 273 273 273 272 271 271 272 272 271 270 270 270 271 269 269 269 269 269 268 270 270 269 270 270 271 270 270 271 271 271 271 271 271 272 273
278 278 277 277 276 275 274 271 270 269 270 270 270 269 268 265 264 264 264 264 264 264 264 265 265 266 267 268 268 269 270 270 271 272 273 273 273 272 271 270 270 271 271 271 271 271 272 272 270 270 269 269 270 268 269 268 268 268 269 268 269 271 270 270 270 270 270 270 270 271 272 272 273 273
275 275 274 273 273 273 273 272 271 269 268 266 266 265 264 264 264 264 264 264 264 264 264 265 265 266 267 268 269 268 269 270 271 272 273 272 271 270 270 269 268 269 270 270 271 271 270 271 271 270 268 268 269 269 269 269 267 267 267 268 268 265 267 269 269 269 270 270 270 270 271 272 272 273
271 271 272 271 268 267 266 266 264 264 264 264 264 264 263 263 263 265 266 266 264 264 265 265 266 266 267 266 267 268 269 270 271 272 272 271 270 269 268 267 266 267 268 269 269 269 269 269 271 271 270 268 267 268 269 268 267 267 267 268 268 268 269 268 268 269 270 270 269 269 270 270 271 271
267 266 265 265 265 265 264 264 264 263 262 262 262 261 261 262 263 262 262 262 263 263 264 264 264 265 266 266 267 268 268 269 270 272 271 271 269 268 268 266 266 266 265 265 267 267 267 268 271 271 270 270 269 268 267 266 266 267 266 266 267 267 267 268 268 268 269 269 268 268 268 270 271 272
265 265 264 264 264 263 263 262 262 262 261 261 261 261 263 263 261 262 262 262 262 263 264 264 264 265 265 265 266 267 267 268 270 272 271 269 269 267 266 266 266 266 265 264 265 265 266 267 269 271 271 270 270 269 268 266 266 266 266 266 266 266 267 268 268 268 268 268 268 267 268 269 271 272
264 263 263 263 262 262 262 262 261 262 261 261 260 260 261 261 262 262 262 262 262 263 263 264 264 265 265 265 266 266 266 267 269 270 271 269 268 267 266 265 265 265 264 263 264 265 265 266 267 268 268 269 268 269 272 269 266 266 266 266 266 266 266 267 267 267 267 268 268 267 267 268 269 271
264 264 264 262 262 262 261 261 261 261 260 260 260 259 260 260 261 261 261 262 262 262 262 263 264 264 264 265 265 266 266 267 268 269 269 268 267 266 266 266 265 264 263 263 263 265 265 265 265 266 265 265 265 264 265 271 270 267 266 265 266 266 266 266 266 267 267 267 268 268 267 267 268 270
264 263 263 262 262 261 260 261 260 260 260 259 259 259 260 260 260 261 261 262 261 262 263 264 264 264 264 265 265 265 266 266 267 268 268 267 267 266 265 264 264 263 262 262 264 265 265 265 265 265 264 264 263 262 264 267 269 271 267 265 265 265 265 266 266 266 267 267 267 268 268 268 268 270
264 263 262 262 261 261 260 259 259 259 259 259 259 259 260 260 261 260 261 260 261 262 263 263 264 264 264 264 264 264 265 266 267 268 268 267 265 264 263 263 262 262 261 262 263 264 265 265 264 264 264 263 263 263 263 265 266 268 271 267 265 265 266 266 265 265 266 267 266 267 268 268 269 271
264 262 262 261 261 260 259 259 259 259 259 259 259 259 259 259 259 259 260 260 261 262 262 263 263 264 263 263 264 264 264 265 266 267 267 266 265 263 262 262 262 262 261 261 262 263 264 264 264 264 264 263 263 263 264 263 264 267 270 271 266 265 265 266 265 265 265 266 267 268 268 269 271 273
263 263 262 261 260 260 259 259 259 259 258 259 259 259 258 258 259 259 260 261 262 261 262 262 263 263 262 263 263 264 264 265 266 267 267 266 264 263 262 262 261 261 260 261 261 262 262 263 263 264 265 265 266 266 266 267 267 268 268 270 271 267 266 265 265 265 265 265 266 266 266 267 267 268
262 261 261 261 260 259 259 259 259 258 258 258 258 259 259 258 258 259 260 262 262 261 261 262 262 262 262 262 262 263 263 264 266 267 267 265 264 263 262 262 260 261 260 260 261 261 261 262 263 266 266 266 265 266 266 264 263 264 265 267 270 271 269 268 265 264 264 264 264 264 263 263 264 266
261 261 261 260 260 259 259 258 258 258 258 258 257 258 258 258 258 261 262 262 260 261 262 262 262 262 261 261 262 262 263 264 265 266 266 265 263 262 261 260 260 261 260 260 260 261 262 262 262 263 264 265 266 264 262 262 262 263 264 266 267 270 271 270 269 268 266 266 265 264 264 264 265 264
262 261 261 259 259 259 258 258 258 258 258 257 257 257 257 258 258 258 259 259 259 261 261 261 261 261 261 261 261 262 263 263 265 266 266 265 264 262 261 260 260 260 259 260 261 260 261 261 262 263 264 264 263 264 262 262 263 263 264 264 265 266 267 269 271 272 271 271 270 267 265 265 263 262
262 261 261 259 258 259 258 258 258 258 258 257 257 257 257 257 257 258 258 259 259 260 261 261 261 261 260 261 261 262 262 263 265 265 265 265 264 262 261 260 260 259 259 260 260 260 261 261 261 261 261 261 261 263 262 262 262 263 263 263 263 263 263 264 267 269 270 271 272 271 270 269 268 269
262 261 260 259 259 259 259 258 258 258 257 257 257 257 257 258 258 258 258 258 259 260 260 261 260 260 261 261 261 260 261 263 264 265 265 265 264 263 260 259 259 259 259 259 258 259 260 259 260 260 260 260 260 260 261 261 261 261 261 261 260 261 262 262 263 264 265 266 269 272 271 271 271 270
Wind_Speed
7 6 6 4 4 4 4 4 4 4 3 2 2 2 1 2 0 4 3 1 2 2 1 2 1 2 7 8 7 8 7 8 11 10 10 10 10 13 21 22 22 24 26 27 27 27 29 29 30 30 31 31 31 32 32 32 32 33 33 34 35 36 35 35 35 35 36 37 37 39 39 39 38 38
6 5 5 4 4 4 3 4 4 4 4 3 2 2 2 2 2 1 3 5 2 4 1 1 4 4 8 8 9 7 8 10 12 11 10 10 10 17 19 19 22 24 27 28 28 29 29 30 31 32 32 32 32 32 32 33 33 34 34 36 36 35 35 35 35 36 36 36 37 37 38 38 39 38
6 6 6 4 5 3 4 3 3 3 3 3 3 3 2 2 2 2 2 4 2 1 6 2 3 9 9 9 9 7 8 10 12 11 11 11 15 17 13 16 20 25 27 29 29 29 29 29 31 33 33 32 33 33 33 34 34 35 35 35 35 35 34 35 35 35 36 36 37 37 37 39 39 39
6 8 8 5 5 4 4 4 3 3 2 2 2 2 3 2 2 2 2 4 9 2 6 8 5 8 12 12 12 11 8 8 12 11 10 12 15 12 11 14 19 23 27 28 28 29 29 30 32 33 32 33 33 34 34 35 35 36 36 36 36 36 35 34 35 35 36 36 35 36 36 36 37 37
7 7 7 6 4 3 5 4 3 3 3 3 3 3 2 3 2 1 1 4 10 6 4 5 7 9 11 11 9 14 13 11 10 13 11 12 11 12 11 11 15 21 27 27 27 28 29 30 31 31 31 31 32 34 35 35 35 35 36 36 36 35 35 35 36 36 36 38 37 36 36 35 35 34
5 6 7 6 5 3 5 4 4 3 3 3 4 3 3 3 3 2 1 4 4 11 5 4 5 6 8 12 9 11 16 16 15 15 13 10 10 10 11 11 11 19 26 28 29 29 30 29 30 30 29 31 33 35 36 36 35 35 36 36 36 36 37 37 36 37 37 37 36 35 34 35 37 36
6 6 6 5 4 3 5 4 3 3 3 3 4 4 3 3 3 2 3 3 4 8 10 4 6 8 9 9 13 13 12 13 13 15 15 14 12 9 10 11 10 17 24 28 31 31 29 28 28 30 31 32 34 34 34 34 34 35 36 36 35 36 36 36 36 37 37 37 38 37 37 34 35 34
6 6 6 5 5 5 5 4 3 3 3 4 4 4 3 3 3 3 3 3 4 6 10 8 6 7 10 9 10 10 10 11 14 12 14 14 13 14 12 14 13 14 23 27 28 28 27 25 25 29 31 32 33 33 33 33 34 34 34 35 35 36 36 36 37 37 37 38 37 35 36 35 36 35
6 5 5 5 5 5 5 4 3 3 5 4 3 4 3 3 3 3 4 4 5 7 9 12 7 6 8 8 8 8 14 16 16 16 14 13 14 14 12 12 14 23 28 25 23 22 24 25 28 30 28 30 32 32 32 32 32 33 33 34 35 36 36 36 35 36 37 37 37 36 37 33 34 33
5 6 5 5 4 4 4 4 4 4 4 4 4 4 4 3 3 4 3 4 5 6 8 9 13 9 10 11 8 6 9 13 16 17 18 17 13 14 14 13 10 9 12 15 14 17 20 25 29 30 29 30 31 31 30 30 31 32 33 33 34 35 36 36 35 37 37 38 35 33 35 36 34 35
5 5 5 5 4 4 4 5 4 4 4 4 4 4 4 4 4 4 4 5 6 6 8 9 8 10 9 9 13 12 11 11 9 12 17 20 18 17 17 19 17 14 13 18 22 19 19 21 20 26 28 27 29 30 30 30 30 30 30 32 33 35 35 37 35 36 35 36 35 35 33 35 36 37
5 5 5 4 4 4 4 4 4 4 4 3 4 4 4 4 4 4 5 6 7 7 8 8 10 9 10 11 10 10 9 10 10 10 13 18 19 22 21 18 18 17 17 18 18 15 19 18 18 21 22 24 27 29 26 27 28 29 30 33 36 36 36 35 35 36 34 34 34 34 34 35 36 37
5 5 4 4 5 5 6 7 6 6 5 3 4 4 4 4 5 5 5 5 6 7 8 10 10 10 10 9 12 13 12 13 14 15 14 16 16 16 18 16 12 13 19 18 18 14 14 19 18 17 17 18 23 20 23 22 25 28 34 37 36 36 35 36 37 36 38 36 35 35 36 36 36 37
5 5 5 5 7 7 6 7 7 7 7 6 4 3 3 4 4 5 5 5 5 6 7 8 10 12 11 11 10 13 14 14 14 16 16 18 17 17 16 16 10 13 15 20 21 16 13 16 18 18 19 18 18 17 16 16 25 32 36 35 36 37 39 40 40 38 36 35 32 31 32 33 31 31
6 5 5 5 5 5 4 5 6 5 5 5 5 4 4 5 4 4 5 5 5 6 6 7 8 10 13 11 11 12 14 14 15 14 14 14 15 15 16 18 17 11 18 20 21 21 15 15 18 17 16 19 19 17 18 30 33 34 34 36 37 40 41 42 40 38 34 30 29 25 23 24 34 33
6 6 5 4 3 3 3 3 2 0 1 0 3 4 5 5 6 5 4 5 5 6 6 7 7 9 10 12 12 12 14 15 16 14 14 14 14 16 16 14 14 15 18 20 20 20 15 17 17 18 17 16 17 17 26 32 33 33 34 36 39 40 42 36 30 25 22 18 17 18 27 40 34 38
6 5 5 4 3 3 4 2 2 2 1 3 1 5 4 4 5 5 6 6 5 5 7 7 8 8 10 13 12 13 15 14 15 15 14 14 15 15 15 14 15 17 16 16 17 19 18 18 18 18 19 16 16 18 22 30 30 32 34 36 35 37 29 32 33 32 30 23 19 29 36 31 35 38
5 5 5 4 4 3 2 2 2 2 2 1 3 3 3 3 4 5 6 7 8 8 6 7 9 10 10 11 13 14 13 13 13 13 14 15 17 17 17 20 18 14 12 13 16 17 16 16 18 18 17 16 15 14 21 27 29 32 33 32 33 30 31 32 33 33 33 30 29 32 27 33 31 39
5 5 4 4 4 3 1 2 1 1 2 2 2 3 3 3 4 4 5 5 5 5 6 8 10 11 10 11 12 12 11 12 11 11 13 14 15 17 19 17 13 12 11 14 14 15 16 16 18 16 17 16 15 12 16 23 28 31 30 29 30 29 29 31 31 32 32 31 30 31 32 30 33 37
4 4 4 3 3 2 1 4 3 3 2 2 2 3 3 3 3 4 5 6 6 6 7 8 10 10 11 14 12 12 11 10 10 11 11 11 11 13 15 16 14 12 10 12 13 12 15 15 17 17 15 14 14 13 11 19 27 28 28 27 27 29 26 27 28 30 30 29 29 29 29 28 29 31
4 4 4 3 2 2 1 5 3 4 4 2 2 2 3 2 2 4 4 3 7 11 13 14 15 16 16 15 16 15 15 12 10 9 11 11 12 13 15 16 15 14 12 12 12 13 14 14 16 19 14 14 15 13 12 13 20 24 26 27 27 28 27 27 26 27 27 27 27 27 27 27 27 27
4 4 5 3 2 2 3 3 4 4 3 2 2 2 3 3 4 3 3 4 5 9 11 13 13 14 14 14 14 13 13 13 11 8 9 11 12 13 12 15 15 16 12 8 11 11 10 13 12 15 15 11 7 9 10 13 13 18 19 24 26 28 27 27 29 28 28 27 27 27 27 26 21 14
3 4 4 4 4 3 2 2 3 3 2 1 1 1 2 3 3 4 6 6 6 6 7 7 7 8 9 8 8 8 12 12 10 9 9 10 10 12 13 13 14 13 10 11 13 10 10 12 12 12 14 13 7 3 12 12 10 11 11 13 13 25 26 27 26 27 28 27 27 28 28 27 20 12
4 3 2 3 4 2 1 1 2 2 2 1 1 1 1 3 4 5 5 6 6 6 6 7 7 7 6 6 6 6 7 7 8 8 8 9 9 10 11 12 11 11 12 12 14 9 9 8 10 10 9 10 10 12 13 10 9 10 11 12 11 18 20 21 20 26 26 27 29 28 28 29 23 11
5 4 3 2 4 3 1 1 0 1 1 2 2 1 2 4 5 7 5 6 8 5 5 6 5 5 5 5 6 5 5 6 6 7 8 8 9 9 10 11 12 12 11 11 17 8 7 9 10 10 9 8 10 11 11 9 8 9 11 11 11 12 12 12 10 12 19 23 26 29 30 30 32 21
5 5 4 3 4 3 3 2 1 1 2 3 2 2 5 7 9 6 4 2 3 4 5 5 5 5 5 6 6 6 6 6 7 6 7 7 8 8 8 9 11 12 12 11 16 8 8 8 9 9 9 9 10 10 10 7 6 9 8 10 10 10 11 10 11 12 12 11 11 18 21 28 29 31
6 5 4 5 5 4 4 3 2 2 3 3 2 5 7 9 10 7 2 3 3 5 5 5 5 5 5 7 8 8 8 8 7 7 6 6 7 6 7 8 8 9 10 9 7 7 7 7 9 8 9 8 9 10 7 6 6 9 7 11 11 10 10 10 11 11 10 10 10 20 20 24 25 29
6 6 6 5 6 5 4 3 3 2 3 3 4 6 8 9 8 3 3 2 3 5 4 5 6 6 6 7 8 8 9 9 9 9 8 7 6 6 8 8 8 7 7 7 7 7 6 7 8 8 8 8 8 8 8 6 5 6 7 6 8 10 10 11 11 11 10 9 10 11 10 11 12 11
6 7 9 9 7 6 5 4 4 4 4 5 5 7 8 7 2 2 2 2 4 4 5 5 6 6 6 7 8 8 9 10 9 8 7 6 5 6 5 7 7 6 5 6 7 7 6 5 7 8 7 6 6 6 6 5 6 7 8 7 7 11 11 11 9 9 9 10 10 10 10 10 10 11
11 11 9 9 8 6 5 3 2 2 2 6 7 7 7 2 1 1 1 2 4 4 5 5 6 6 7 7 7 8 8 8 9 10 11 11 12 12 11 9 8 5 4 5 6 7 7 5 6 6 6 5 5 6 6 6 6 7 8 8 5 2 9 10 9 9 9 10 10 11 11 11 12 12
7 8 7 5 6 5 6 5 4 4 5 4 3 2 2 1 1 1 1 2 3 4 5 5 6 6 7 7 7 7 7 7 8 9 10 9 10 11 10 10 9 9 9 6 5 5 8 6 5 5 5 5 5 5 6 5 5 6 8 8 8 7 6 7 7 9 8 9 9 10 10 10 10 11
5 5 6 6 3 3 3 2 2 2 2 1 1 1 1 1 2 3 4 4 1 2 4 5 5 6 6 6 6 7 7 7 8 8 8 9 10 10 10 10 10 9 9 9 8 8 7 6 4 5 5 5 5 5 4 6 6 6 6 7 7 7 8 8 8 7 8 6 8 10 10 10 10 9
7 6 6 4 4 3 3 1 1 0 0 1 1 1 2 2 1 1 1 1 2 2 4 4 5 6 6 6 6 6 6 7 8 7 7 8 8 8 8 8 10 11 11 10 10 10 8 7 4 2 6 6 7 5 4 5 6 6 5 6 6 7 7 8 7 7 7 6 8 7 9 9 8 9
8 7 7 4 5 4 3 3 3 3 2 2 1 1 2 1 1 2 1 1 2 3 4 4 5 6 6 6 6 6 6 7 7 7 9 8 8 8 8 8 9 9 9 9 9 10 10 8 5 2 3 5 7 8 5 5 5 5 5 5 6 6 6 5 6 6 6 6 4 7 9 7 7 7
7 9 7 5 4 4 4 4 4 3 3 2 2 1 1 2 2 2 2 2 2 4 4 5 5 5 5 5 6 6 7 7 7 6 7 7 8 8 7 8 8 8 8 9 9 9 9 9 7 3 0 0 1 5 12 7 2 3 2 5 5 5 5 5 4 5 5 5 4 7 6 7 8 8
9 7 8 6 6 5 5 5 4 3 3 2 2 1 1 1 2 2 2 2 2 3 4 5 5 5 5 5 5 6 7 7 7 6 7 7 7 7 6 6 7 8 7 6 8 8 8 8 6 4 2 2 2 3 5 11 8 2 3 2 3 3 3 3 3 3 5 5 5 6 7 6 6 7
10 6 8 7 6 6 7 6 5 4 3 3 3 2 2 2 2 2 3 3 2 2 4 5 5 4 5 5 5 6 6 7 6 6 6 7 6 6 7 7 6 7 6 5 5 7 7 7 6 5 2 2 4 4 4 4 9 11 3 3 2 3 2 2 2 5 5 6 6 6 6 5 5 7
11 7 9 8 10 9 6 6 4 4 4 4 3 3 3 4 3 4 3 2 2 2 3 4 4 4 4 5 5 5 5 6 6 5 6 6 6 6 5 5 6 7 6 5 4 5 6 6 6 6 3 2 2 2 2 4 4 7 10 3 2 2 2 2 4 4 6 6 5 6 5 5 4 5
10 11 9 8 8 8 9 7 6 6 5 4 4 4 3 3 3 3 2 3 2 2 2 4 4 4 4 4 4 5 5 5 6 5 6 5 4 5 5 5 6 6 6 6 4 4 5 6 6 6 5 3 3 1 1 1 3 5 7 9 3 2 2 3 3 3 4 4 4 3 3 2 6 14
9 9 10 11 9 8 8 7 6 5 5 5 4 4 4 5 3 3 3 3 2 1 2 3 4 4 4 3 4 4 5 6 6 5 6 5 5 3 3 3 4 5 5 6 6 4 4 4 4 5 4 3 1 1 0 2 2 4 5 8 9 4 2 1 2 2 2 4 4 3 4 5 5 4
9 8 7 7 7 8 8 7 6 5 5 4 5 5 5 4 4 4 3 3 2 2 2 3 4 4 4 4 4 4 4 5 5 5 5 5 5 4 4 4 3 3 4 5 5 5 3 4 7 12 6 2 2 2 1 0 2 3 5 6 9 7 5 3 1 0 1 1 2 3 2 2 2 3
7 6 8 10 10 8 7 7 6 5 5 4 5 5 5 4 4 6 5 4 2 2 2 3 4 5 4 3 3 3 4 5 5 6 5 6 5 4 3 1 3 4 3 5 4 5 5 5 6 4 1 0 0 0 0 1 2 2 2 3 5 8 7 5 5 4 3 2 0 0 0 1 0 2
8 9 11 9 10 8 6 7 6 6 6 5 6 5 5 5 5 4 3 3 2 2 2 3 3 4 4 4 3 3 3 5 5 6 6 6 5 5 3 2 2 3 3 4 3 3 3 4 3 2 1 1 0 1 2 2 1 1 2 2 4 4 5 9 8 7 6 4 2 4 1 1 0 0
10 10 8 7 7 7 7 7 7 6 6 6 5 5 6 5 5 5 3 3 3 3 2 2 3 4 4 4 3 3 3 4 5 6 6 6 5 4 3 3 2 2 2 2 2 2 2 2 3 2 1 2 1 1 3 4 3 1 1 2 2 3 4 5 4 7 8 11 17 4 4 5 4 5
11 10 9 8 7 7 7 7 7 6 6 6 6 6 5 4 5 5 4 3 3 4 3 3 3 4 4 4 4 3 3 5 6 6 6 6 6 4 2 2 2 2 2 1 2 2 1 2 2 2 2 2 2 1 2 1 1 0 1 2 3 3 3 3 4 4 4 4 12 15 8 7 5 8
Wind_Direction
127 121 118 110 117 121 119 112 117 124 129 135 136 113 121 106 118 335 308 27 296 294 139 323 311 27 12 339 331 324 324 330 330 324 320 321 319 324 328 328 328 324 321 319 318 318 320 321 321 320 320 320 320 319 319 317 316 314 314 312 311 311 309 308 307 306 305 305 303 302 300 298 298 297
124 119 114 119 109 117 111 110 121 124 130 131 122 113 101 137 114 200 298 299 222 274 230 212 309 328 337 331 325 324 321 326 326 322 321 322 325 325 325 327 328 325 322 319 318 318 319 320 320 320 320 320 318 318 317 317 316 315 313 313 312 310 309 308 307 306 305 303 301 299 298 297 296 296
130 124 111 108 100 109 106 108 109 112 119 115 122 111 109 88 108 156 219 301 261 117 308 287 332 318 325 325 316 318 320 325 325 322 324 325 325 322 323 326 327 325 320 318 317 318 319 319 320 320 319 318 317 316 316 316 315 314 314 312 310 308 309 310 309 308 306 304 303 301 299 297 295 294
127 115 104 97 100 102 97 88 78 77 67 76 93 92 92 93 84 139 216 245 266 248 287 300 317 332 325 326 327 324 318 315 324 329 322 324 324 325 325 325 324 320 317 316 316 317 319 320 321 320 319 317 316 315 315 315 314 315 314 311 310 311 311 310 309 307 306 304 303 302 300 297 294 292
109 106 105 101 93 103 102 100 97 94 94 97 97 98 96 84 71 104 257 270 291 289 174 308 321 328 329 321 333 325 326 326 328 325 321 322 324 322 321 320 316 315 316 315 317 318 320 322 321 320 318 317 316 315 315 315 314 313 310 309 310 311 311 309 308 308 306 304 304 302 300 298 295 293
105 109 107 106 109 105 107 111 114 118 116 112 97 88 78 66 52 20 335 289 278 298 316 323 321 320 338 314 330 334 327 326 328 324 321 317 316 314 316 318 316 314 316 318 319 321 321 322 322 320 320 319 317 316 315 314 313 311 310 310 312 312 311 310 308 307 306 306 304 304 304 303 299 296
117 106 108 119 126 130 121 123 118 123 110 95 85 77 76 64 49 29 16 343 303 307 307 315 325 335 330 322 320 326 319 312 317 318 320 321 317 317 317 316 316 316 316 318 319 320 322 324 324 321 321 320 317 315 314 313 313 312 310 310 309 309 308 307 306 305 306 306 305 303 299 300 301 298
119 123 123 131 142 147 126 125 115 104 100 89 85 84 75 62 52 16 17 345 312 306 311 314 333 323 324 317 317 315 309 315 318 317 313 316 318 321 324 323 318 317 316 315 315 318 320 324 323 320 320 319 316 315 315 315 314 312 310 308 308 307 306 306 306 304 303 303 304 303 302 300 305 300
122 126 122 136 148 157 132 126 115 106 100 98 93 83 70 53 33 17 360 343 324 311 304 306 315 317 308 307 310 334 336 329 326 322 319 319 317 317 318 321 320 319 318 317 316 319 322 325 323 319 320 319 317 317 317 316 315 312 309 308 306 306 306 305 305 306 303 302 302 302 303 302 302 304
119 123 128 134 144 154 138 125 122 117 106 100 86 75 58 44 26 15 355 344 331 316 302 306 314 329 332 325 323 339 338 329 326 326 324 321 322 321 322 324 317 320 313 314 316 323 323 324 322 320 322 321 317 316 317 317 315 312 308 306 304 303 305 303 305 307 308 306 303 306 306 304 303 304
114 120 126 130 134 128 123 125 121 113 103 89 77 68 50 33 20 4 360 346 338 327 319 313 308 313 322 324 317 329 330 323 322 327 327 322 324 322 326 328 330 332 321 311 311 318 319 316 318 319 321 317 313 315 316 314 310 306 303 303 305 304 308 310 310 309 310 307 307 306 305 304 304 302
117 119 117 117 117 114 114 112 106 104 95 91 75 63 45 29 15 6 352 348 339 333 327 321 320 323 322 320 312 314 328 330 327 336 326 317 321 323 325 329 333 328 325 325 323 327 324 321 323 322 320 317 315 315 313 312 308 303 305 311 314 313 315 314 312 311 308 307 307 307 307 306 302 299
115 113 109 107 105 99 95 92 90 87 90 89 75 50 37 21 12 358 351 343 338 332 327 319 319 318 321 322 324 327 336 338 327 324 325 314 315 317 316 320 333 327 322 321 316 323 334 326 328 328 328 320 320 315 313 313 311 313 318 320 320 320 319 315 310 308 307 308 310 309 308 305 301 297
114 112 113 107 104 98 88 84 84 84 77 79 73 64 31 13 3 351 342 338 333 326 323 320 320 318 317 323 325 321 320 322 323 325 326 322 322 322 317 313 328 333 326 321 321 324 336 327 323 329 330 322 320 325 323 318 322 323 325 325 325 322 319 314 310 308 309 310 312 313 314 317 315 305
131 127 121 119 110 99 84 79 79 81 84 81 64 50 32 15 358 345 338 329 325 319 313 312 312 308 308 313 320 318 319 322 325 323 320 318 321 323 324 321 320 339 334 323 319 319 335 329 323 322 323 324 326 325 326 325 328 329 330 330 328 326 322 317 315 310 308 311 319 334 346 4 12 357
138 139 137 132 126 106 98 102 91 78 248 148 48 36 24 11 0 346 333 322 319 318 309 308 305 306 305 313 319 320 325 325 323 324 323 320 319 316 314 313 316 323 324 317 317 314 329 324 320 321 326 327 329 329 327 328 332 334 334 333 332 331 327 323 332 346 353 360 24 26 26 29 14 11
142 146 146 146 136 123 127 146 203 207 236 240 5 38 21 5 359 345 335 326 310 304 300 298 298 297 308 310 314 321 321 322 319 322 320 319 315 313 308 310 315 316 317 314 316 317 322 323 320 321 326 330 333 330 328 331 337 338 336 337 337 338 3 37 39 39 38 37 35 42 40 33 24 24
142 152 158 152 140 137 156 182 221 241 217 109 40 22 8 3 356 349 332 319 309 301 295 295 293 300 304 302 310 319 326 323 318 318 316 318 317 315 309 308 307 306 312 314 318 311 316 322 320 323 326 329 326 326 327 335 341 338 339 342 346 352 21 32 37 37 35 31 31 42 37 37 28 36
141 149 145 133 128 148 168 208 263 61 44 47 43 16 10 4 354 336 322 311 309 304 299 296 295 300 308 312 316 319 318 312 309 310 309 313 308 300 300 300 301 308 315 319 320 310 319 326 323 327 328 323 324 331 329 339 342 340 341 346 349 358 21 29 36 40 40 38 36 41 41 40 36 39
144 146 138 124 145 165 178 245 311 30 39 61 73 18 12 1 338 315 299 301 312 317 316 315 315 316 314 315 314 313 313 313 312 312 312 306 304 309 309 307 312 313 324 324 322 315 323 333 328 321 323 320 322 331 336 339 342 342 343 346 353 2 18 28 32 35 36 33 32 35 37 37 39 42
151 143 139 151 156 186 225 258 341 15 40 51 33 17 20 346 310 302 278 305 343 336 330 326 321 316 315 314 312 314 317 318 322 318 313 313 318 313 311 310 317 319 330 327 333 333 323 338 330 317 322 324 319 330 338 338 344 347 346 349 355 2 11 27 34 35 34 34 34 34 35 35 37 41
145 144 157 162 181 209 243 278 20 12 43 28 29 27 358 330 333 336 12 349 338 339 332 326 321 317 315 314 315 315 317 320 326 320 313 313 314 310 310 311 317 315 323 332 354 339 332 332 327 316 314 312 316 325 339 339 350 351 346 348 352 1 7 15 33 38 38 38 36 35 35 33 30 25
149 158 157 180 192 201 247 5 17 23 29 38 39 34 344 333 350 2 355 352 345 338 333 326 320 309 306 306 309 309 313 318 321 318 311 312 313 311 310 313 316 316 327 343 2 344 336 335 328 328 325 325 324 357 342 340 359 355 350 346 346 360 7 7 12 28 39 42 41 42 43 39 33 26
160 155 166 186 199 193 304 30 30 25 33 87 74 4 5 357 351 355 21 11 348 330 317 308 303 299 303 308 308 303 301 308 308 315 314 308 307 306 308 312 313 311 318 329 350 348 325 325 315 327 322 318 322 333 331 335 2 2 360 355 354 354 2 7 12 15 17 35 49 50 47 42 36 27
156 170 176 203 201 202 152 112 104 94 58 87 102 44 27 8 354 19 25 350 343 315 299 298 301 309 314 313 313 311 308 309 307 303 301 291 295 307 306 311 317 313 317 326 346 353 326 317 314 318 314 311 294 312 316 323 10 7 7 4 1 358 359 6 2 1 10 12 27 41 51 54 51 48
168 178 181 188 200 179 152 146 163 134 95 89 98 22 20 17 20 35 23 341 324 321 323 327 325 321 322 326 325 317 308 306 306 298 287 281 282 300 309 317 320 316 319 331 346 336 320 317 319 312 312 319 308 308 309 339 17 356 7 10 12 6 2 4 7 12 9 6 15 31 37 46 54 53
171 172 185 192 184 165 163 164 148 135 90 90 42 30 27 25 28 31 8 341 332 341 336 332 332 325 325 333 330 324 319 314 306 299 282 271 276 304 322 325 320 310 311 325 331 321 314 311 319 318 314 309 304 320 344 358 348 347 2 20 15 11 6 8 20 20 10 12 9 23 32 33 41 53
166 174 179 175 169 166 160 162 156 114 82 65 40 38 30 32 28 18 3 343 345 339 334 334 331 330 329 328 322 319 314 312 310 304 299 302 309 345 340 327 320 308 309 317 319 314 308 313 317 323 316 316 328 335 333 348 348 354 352 5 22 17 12 15 20 21 15 17 20 20 22 21 16 22
166 172 166 164 164 161 154 148 120 69 57 45 47 38 35 31 16 4 359 343 341 348 343 331 317 319 325 317 303 300 303 302 297 299 309 316 336 355 343 328 315 313 312 316 321 314 311 326 320 322 326 336 340 333 345 341 351 352 357 351 18 20 18 22 20 21 14 21 29 27 28 27 25 28
164 160 162 159 153 144 139 106 107 102 56 42 39 35 28 16 347 338 348 325 346 338 331 316 312 313 313 309 299 296 298 305 318 324 335 342 348 352 349 343 334 327 325 319 327 335 332 337 337 330 327 340 352 354 352 352 359 5 4 14 346 6 20 19 16 16 18 29 32 34 37 34 36 41
151 155 150 146 146 142 140 122 92 81 47 35 20 18 5 329 302 304 276 311 328 326 311 306 306 309 302 297 302 320 322 319 317 332 338 347 348 346 343 337 331 331 330 334 339 354 344 336 347 353 360 345 1 14 4 3 12 11 11 16 27 53 344 9 17 18 15 30 38 39 35 36 38 42
132 123 135 128 81 82 70 78 39 37 38 23 19 338 315 287 290 299 315 322 312 280 288 294 300 302 310 313 322 319 320 323 320 329 348 354 348 346 339 337 336 334 328 330 337 350 351 339 340 30 34 20 13 350 16 40 31 10 11 15 36 44 33 29 27 18 8 26 45 44 40 42 40 45
97 100 101 135 133 126 130 105 93 25 325 304 304 286 281 276 290 308 281 312 313 307 312 306 309 305 308 315 325 326 325 324 319 339 352 355 350 342 341 334 328 333 334 333 335 335 338 331 315 55 60 48 39 18 24 44 33 21 16 11 26 36 28 28 27 8 338 25 48 52 53 43 40 46
137 145 157 167 164 155 152 168 188 199 205 216 240 261 288 305 288 272 278 290 281 303 307 301 305 307 314 321 336 333 321 313 319 342 357 351 350 345 341 334 330 331 331 328 332 335 334 325 321 196 125 77 60 48 38 44 33 26 31 29 35 40 25 16 18 358 9 38 40 58 59 46 37 28
156 157 168 170 171 175 167 184 191 193 204 222 205 215 243 267 265 284 285 281 302 312 308 303 303 309 316 328 333 330 319 312 313 338 352 354 349 347 340 335 332 333 333 331 336 340 334 336 338 8 143 213 50 57 49 44 48 25 38 41 41 32 22 16 15 14 13 17 18 64 59 44 32 17
164 175 163 167 177 173 181 196 181 192 207 227 221 209 255 266 267 262 272 286 306 303 300 295 302 312 326 330 330 323 317 313 312 334 347 353 350 344 340 337 333 328 332 327 338 339 340 337 345 358 21 29 49 23 11 22 37 322 15 55 26 35 24 19 16 31 31 32 26 56 54 39 23 18
161 175 175 172 173 178 187 179 177 187 203 209 230 229 224 245 249 261 267 299 287 281 275 283 295 311 324 328 323 321 315 313 308 329 342 347 348 346 340 337 333 332 325 319 322 338 349 348 351 359 20 57 60 52 12 320 19 37 358 25 40 25 26 8 41 45 29 42 45 36 38 42 44 50
176 169 169 174 176 180 173 171 166 181 196 203 212 231 239 240 253 260 270 269 267 260 282 287 292 312 318 321 318 320 316 308 302 324 337 343 347 343 342 327 321 331 323 309 318 332 357 2 8 0 9 71 85 48 338 350 350 10 33 47 26 13 353 23 44 55 54 39 35 26 14 15 33 72
179 173 175 173 177 175 177 176 175 183 183 196 212 214 219 236 242 253 255 251 250 258 283 294 301 312 317 315 318 318 314 305 306 324 332 338 341 334 328 325 322 328 329 323 326 333 353 11 8 13 16 35 73 88 69 24 17 347 22 47 52 22 30 38 61 44 49 41 16 4 17 341 31 31
186 179 166 158 175 169 169 166 175 176 177 198 207 210 202 229 232 237 246 251 249 263 287 294 304 309 308 316 316 313 307 296 300 314 325 326 326 325 320 315 314 316 325 326 331 331 336 340 335 347 353 9 21 18 49 88 75 36 19 27 41 63 26 349 42 42 33 1 350 18 26 22 47 11
168 180 181 177 167 167 168 177 175 168 180 179 190 219 225 221 232 241 240 246 285 293 298 303 304 301 303 315 315 312 303 298 298 305 318 320 317 311 314 318 315 315 316 315 319 321 317 315 300 301 297 266 294 277 285 41 36 22 29 13 14 56 91 85 123 136 89 32 43 44 31 17 357 36
181 179 176 178 178 172 165 167 172 172 182 173 193 213 222 227 226 241 245 260 269 268 287 295 300 301 300 304 308 307 298 293 293 301 313 317 314 309 285 290 311 315 311 308 304 303 298 307 301 297 297 301 341 323 68 82 97 50 33 17 12 14 40 94 136 145 149 137 77 78 32 34 33 53
186 183 183 183 175 164 165 170 170 175 178 167 189 196 209 224 235 243 242 232 226 243 254 275 287 291 296 301 301 302 301 294 292 298 304 307 303 305 302 291 266 278 276 279 283 282 306 318 330 342 13 68 43 174 147 141 108 87 54 32 8 2 2 14 26 59 46 19 260 218 200 215 179 209
183 183 187 176 173 172 171 174 172 169 172 179 185 194 205 202 223 229 219 215 225 229 245 270 279 291 296 302 307 309 309 296 295 296 297 299 298 283 265 279 279 279 276 283 299 310 328 334 355 350 38 27 350 113 133 145 138 124 69 19 5 6 6 340 348 9 10 10 11 16 213 222 216 286
185 182 175 180 178 170 172 171 170 168 170 184 192 197 192 206 215 224 230 227 228 231 234 259 276 288 295 305 315 320 317 307 298 291 291 292 296 284 254 262 270 270 278 284 303 308 346 342 329 357 49 37 39 46 45 50 57 79 35 39 28 13 6 354 8 353 355 360 4 10 77 79 112 125